Flag for Norway Weather past 2 weeks in Osøyro, Norway

Now
31 °F

Clear.


Feels Like: 31 °F
Forecast: 31 / 36 °F
Wind: 1 mph from Northeast

Location: Bergen / Flesland

Current Time: Feb 1, 2015 at 5:42:48 PM

Latest Report: Feb 1, 2015 at 5:00 PM


Visibility: 31 mi

Pressure: 29.23 "Hg

Humidity: 71%

Dew point: 22 °F

Location of OsøyroLocation

Historic Weather in Osøyro — Graph

°F

Osøyro temperature yesterday

Maximum temperature yesterday: 37 °F (at 12:00 AM)
Minimum temperature yesterday: 27 °F (at 11:00 PM)
Average temperature yesterday: 34 °F

Past Weeks' High & Low Weather Summary

 TemperatureHumidityPressure
High45 °F (Jan 26, 2:00 AM)98% (Jan 27, 2:00 AM)30.24 "Hg (Jan 27, 2:00 AM)
Low25 °F (Jan 22, 9:00 AM)48% (Jan 21, 2:00 PM)28.35 "Hg (Jan 29, 4:00 AM)
Average35 °F82%29.55 "Hg
* Reported Jan 17 4:00 PM — Feb 1 4:00 PM, Osøyro, Weather by CustomWeather, © 2014

Note: Actual official high and low records may vary slightly from our data, if they occured in-between our weather recording intervals... More about our weather records

Advertising

Osøyro weather history for previous 24 hours

 ConditionsComfort  
Time TempWeatherWind HumidityBarometerVisibility
4:00 PM
Feb 1
33 °FSunny.2 mph62%29.21 "Hg25 mi
3:00 PM34 °FSunny.5 mph60%29.21 "Hg28 mi
2:00 PM33 °FSunny.7 mph59%29.21 "Hg31 mi
1:00 PM32 °FSunny.7 mph63%29.21 "Hg28 mi
12:00 PM31 °FSunny.6 mph66%29.21 "Hg28 mi
11:00 AM30 °FSunny.3 mph69%29.21 "Hg25 mi
10:00 AM28 °FSunny.3 mph73%29.21 "Hg31 mi
9:00 AM27 °FSunny.3 mph71%29.18 "Hg31 mi
8:00 AM26 °FClear.5 mph74%29.18 "Hg31 mi
7:00 AM26 °FClear.5 mph73%29.18 "Hg31 mi
6:00 AM27 °FClear.6 mph71%29.15 "Hg31 mi
5:00 AM27 °FClear.3 mph71%29.15 "Hg31 mi
4:00 AM26 °FClear.2 mph75%29.15 "Hg31 mi
3:00 AM27 °FClear.2 mph75%29.12 "Hg31 mi
2:00 AM28 °FClear.1 mph74%29.12 "Hg31 mi
1:00 AM25 °FClear.1 mph81%29.12 "Hg28 mi
12:00 AM28 °FClear.2 mph77%29.12 "Hg28 mi
11:00 PM
Jan 31
27 °FClear.1 mph90%29.12 "Hg25 mi
10:00 PM28 °FClear.2 mph83%29.12 "Hg28 mi
9:00 PM29 °FClear.3 mph80%29.09 "Hg28 mi
8:00 PM30 °FClear.2 mph76%29.09 "Hg31 mi
7:00 PM31 °FPassing clouds.1 mph82%29.06 "Hg31 mi
6:00 PM33 °FOvercast.1 mph75%29.06 "Hg31 mi
5:00 PM34 °FOvercast.2 mph74%29.03 "Hg31 mi
Weather by CustomWeather, © 2014

See weather overviewHow to use our weather pages